Location: Nitra
(0.0000°N, 18.0833°E)
Time: 02:22:30
(UTC+02:00)

STRAND 1 - Pass Details

Date: 13 June 2023
Orbit: 767 x 778 km, 98.4° (Epoch: 01 October)

Event Time Altitude Azimuth Distance (km) Brightness Sun altitude
Rises 20:08:37 0° 340° (NNW) 3,240 ? -18.5°
Reaches altitude 10° 20:11:50 10° 319° (NW) 2,315 ? -19.2°
Maximum altitude 20:14:48 16° 283° (WNW) 1,949 ? -19.9°
Drops below altitude 10° 20:17:47 10° 247° (WSW) 2,316 ? -20.6°
Sets 20:21:01 0° 225° (SW) 3,243 ? -21.3°
